Location: Enborne
(51.3833°N, 1.3667°W)
Time: 15:28:58
(UTC+00:00)

NOSS 3-1 (A) - Pass Details

Date: 18 September 2020
Orbit: 745 x 1467 km, 63.4° (Epoch: 08 October)

Event Time Altitude Azimuth Distance (km) Brightness Sun altitude
Rises 18:53:27 0° 239° (WSW) 3,323 7.1 -7.2°
Reaches altitude 10° 18:55:46 10° 244° (WSW) 2,459 6.5 -7.6°
Maximum altitude 19:01:23 59° 324° (NW) 1,077 4.1 -8.4°
Drops below altitude 10° 19:08:05 10° 44° (NE) 2,920 5.7 -9.5°
Sets 19:11:03 0° 48° (NE) 3,998 6.4 -9.9°
